Previsão horária em Abaetetuba

Hoje, 12 Abril, Segunda-feira

Tempo Temperatura Precipitação Vento Pressão Humidade
00:00 +25°C° 0.7 mm 1 m/s 758 mmHg 97%
01:00 +25°C° 0.1 mm 1 m/s 758 mmHg 97%
02:00 +25°C° 0.1 mm 1 m/s 757 mmHg 97%
03:00 +25°C° 0 mm 1 m/s 757 mmHg 97%
04:00 +25°C° 0.1 mm 1 m/s 757 mmHg 97%
05:00 +25°C° 0.1 mm 1 m/s 757 mmHg 97%
06:00 +24°C° 0.1 mm 1 m/s 758 mmHg 97%
07:00 +26°C° 0 mm 1 m/s 758 mmHg 92%
08:00 +27°C° 0 mm 1 m/s 758 mmHg 87%
09:00 +28°C° 0 mm 2 m/s 759 mmHg 82%
10:00 +30°C° 0.1 mm 1 m/s 758 mmHg 76%
11:00 +31°C° 0.1 mm 1 m/s 758 mmHg 69%
12:00 +33°C° 0.1 mm 1 m/s 758 mmHg 62%
13:00 +33°C° 0.5 mm 1 m/s 757 mmHg 64%
14:00 +32°C° 0.5 mm 1 m/s 756 mmHg 65%
15:00 +32°C° 0.5 mm 1 m/s 755 mmHg 67%
16:00 +31°C° 0.8 mm 1 m/s 756 mmHg 75%
17:00 +29°C° 0.8 mm 2 m/s 756 mmHg 84%
18:00 +27°C° 0.8 mm 2 m/s 756 mmHg 92%
19:00 +27°C° 1.8 mm 2 m/s 756 mmHg 94%
20:00 +26°C° 1.8 mm 2 m/s 757 mmHg 95%
21:00 +26°C° 1.8 mm 2 m/s 758 mmHg 97%
22:00 +26°C° 0.5 mm 2 m/s 758 mmHg 96%
23:00 +26°C° 0.5 mm 2 m/s 758 mmHg 96%

Amanhã, 13 Abril, Terça-feira

Tempo Temperatura Precipitação Vento Pressão Humidade
00:00 +26°C° 0.5 mm 2 m/s 758 mmHg 96%
01:00 +25°C° 0.9 mm 2 m/s 758 mmHg 96%
02:00 +25°C° 0.9 mm 2 m/s 757 mmHg 96%
03:00 +25°C° 0.9 mm 2 m/s 757 mmHg 97%
04:00 +25°C° 0.2 mm 2 m/s 757 mmHg 97%
05:00 +25°C° 0.2 mm 2 m/s 758 mmHg 97%
06:00 +25°C° 0.2 mm 2 m/s 758 mmHg 97%
07:00 +26°C° 0.1 mm 2 m/s 758 mmHg 92%
08:00 +27°C° 0.1 mm 2 m/s 759 mmHg 87%
09:00 +29°C° 0.1 mm 2 m/s 759 mmHg 83%
10:00 +30°C° 0.1 mm 2 m/s 759 mmHg 74%
11:00 +32°C° 0.1 mm 2 m/s 759 mmHg 66%
12:00 +34°C° 0.1 mm 2 m/s 758 mmHg 57%
13:00 +32°C° 0.3 mm 2 m/s 758 mmHg 64%
14:00 +31°C° 0.3 mm 2 m/s 757 mmHg 71%
15:00 +30°C° 0.3 mm 3 m/s 756 mmHg 77%
16:00 +29°C° 0.4 mm 2 m/s 756 mmHg 82%
17:00 +28°C° 0.4 mm 2 m/s 756 mmHg 86%
18:00 +28°C° 0.4 mm 2 m/s 757 mmHg 91%
19:00 +27°C° 0.2 mm 2 m/s 757 mmHg 92%
20:00 +27°C° 0.2 mm 2 m/s 758 mmHg 94%
21:00 +26°C° 0.2 mm 2 m/s 758 mmHg 95%
22:00 +26°C° 0.3 mm 2 m/s 758 mmHg 96%
23:00 +26°C° 0.3 mm 2 m/s 758 mmHg 96%

Depois de amanhã, 14 Abril, Quarta-feira

Tempo Temperatura Precipitação Vento Pressão Humidade
00:00 +26°C° 0.3 mm 2 m/s 759 mmHg 97%
01:00 +25°C° 0 mm 2 m/s 758 mmHg 97%
02:00 +25°C° 0 mm 1 m/s 757 mmHg 97%
03:00 +25°C° 0 mm 1 m/s 757 mmHg 97%
04:00 +25°C° 0.1 mm 1 m/s 757 mmHg 98%
05:00 +25°C° 0.1 mm 1 m/s 757 mmHg 98%
06:00 +25°C° 0.1 mm 1 m/s 757 mmHg 98%
07:00 +26°C° 0.2 mm 1 m/s 758 mmHg 94%
08:00 +27°C° 0.2 mm 2 m/s 758 mmHg 90%
09:00 +28°C° 0.2 mm 2 m/s 759 mmHg 86%
10:00 +30°C° 0.4 mm 2 m/s 759 mmHg 79%
11:00 +31°C° 0.4 mm 2 m/s 758 mmHg 73%
12:00 +32°C° 0.4 mm 2 m/s 758 mmHg 66%
13:00 +32°C° 0.8 mm 2 m/s 757 mmHg 68%
14:00 +32°C° 0.8 mm 2 m/s 756 mmHg 71%
15:00 +32°C° 0.8 mm 2 m/s 756 mmHg 73%
16:00 +30°C° 0.5 mm 2 m/s 756 mmHg 79%
17:00 +29°C° 0.5 mm 2 m/s 756 mmHg 85%
18:00 +28°C° 0.5 mm 2 m/s 756 mmHg 91%
19:00 +27°C° 0.2 mm 2 m/s 757 mmHg 92%
20:00 +27°C° 0.2 mm 2 m/s 757 mmHg 94%
21:00 +26°C° 0.2 mm 2 m/s 758 mmHg 96%
22:00 +26°C° 0.1 mm 2 m/s 758 mmHg 96%
23:00 +26°C° 0.1 mm 2 m/s 758 mmHg 97%

15 Abril, Quinta-feira

Tempo Temperatura Precipitação Vento Pressão Humidade
00:00 +26°C° 0.1 mm 2 m/s 758 mmHg 97%
01:00 +26°C° 0 mm 2 m/s 757 mmHg 97%
02:00 +26°C° 0 mm 2 m/s 757 mmHg 97%
03:00 +25°C° 0 mm 1 m/s 756 mmHg 98%
04:00 +25°C° 0 mm 2 m/s 757 mmHg 98%
05:00 +25°C° 0 mm 2 m/s 757 mmHg 98%
06:00 +25°C° 0 mm 2 m/s 757 mmHg 98%
07:00 +26°C° 0 mm 2 m/s 757 mmHg 93%
08:00 +27°C° 0 mm 2 m/s 758 mmHg 89%
09:00 +29°C° 0 mm 2 m/s 759 mmHg 84%
10:00 +30°C° 0.1 mm 2 m/s 758 mmHg 75%
11:00 +32°C° 0.1 mm 2 m/s 758 mmHg 66%
12:00 +34°C° 0.1 mm 2 m/s 757 mmHg 56%
13:00 +34°C° 0.3 mm 2 m/s 757 mmHg 63%
14:00 +32°C° 0.3 mm 2 m/s 756 mmHg 69%
15:00 +31°C° 0.3 mm 2 m/s 755 mmHg 75%
16:00 +30°C° 0.5 mm 2 m/s 755 mmHg 81%
17:00 +28°C° 0.5 mm 2 m/s 755 mmHg 86%
18:00 +27°C° 0.5 mm 2 m/s 755 mmHg 92%
19:00 +27°C° 0.5 mm 2 m/s 756 mmHg 93%
20:00 +26°C° 0.5 mm 2 m/s 757 mmHg 94%
21:00 +26°C° 0.5 mm 2 m/s 758 mmHg 96%
22:00 +26°C° 0 mm 2 m/s 758 mmHg 96%
23:00 +25°C° 0 mm 2 m/s 758 mmHg 97%

16 Abril, Sexta-feira

Tempo Temperatura Precipitação Vento Pressão Humidade
00:00 +25°C° 0 mm 2 m/s 758 mmHg 97%
01:00 +25°C° 0.4 mm 2 m/s 757 mmHg 97%
02:00 +25°C° 0.4 mm 2 m/s 757 mmHg 97%
03:00 +25°C° 0.4 mm 1 m/s 757 mmHg 98%
04:00 +25°C° 0.1 mm 1 m/s 757 mmHg 98%
05:00 +25°C° 0.1 mm 1 m/s 757 mmHg 98%
06:00 +25°C° 0.1 mm 2 m/s 757 mmHg 98%
07:00 +26°C° 0.1 mm 2 m/s 758 mmHg 94%
08:00 +27°C° 0.1 mm 2 m/s 758 mmHg 91%
09:00 +28°C° 0.1 mm 2 m/s 758 mmHg 87%
10:00 +29°C° 0.9 mm 2 m/s 758 mmHg 82%
11:00 +30°C° 0.9 mm 2 m/s 758 mmHg 78%
12:00 +31°C° 0.9 mm 2 m/s 758 mmHg 73%
13:00 +30°C° 0.8 mm 2 m/s 757 mmHg 76%
14:00 +30°C° 0.8 mm 2 m/s 756 mmHg 79%
15:00 +30°C° 0.8 mm 2 m/s 756 mmHg 82%
16:00 +29°C° 1.6 mm 2 m/s 756 mmHg 86%
17:00 +28°C° 1.6 mm 2 m/s 756 mmHg 90%
18:00 +27°C° 1.6 mm 2 m/s 756 mmHg 93%
19:00 +26°C° 0.7 mm 2 m/s 756 mmHg 94%
20:00 +26°C° 0.7 mm 2 m/s 757 mmHg 95%
21:00 +26°C° 0.7 mm 2 m/s 757 mmHg 96%
22:00 +26°C° 0.4 mm 2 m/s 757 mmHg 96%
23:00 +26°C° 0.4 mm 2 m/s 758 mmHg 96%

17 Abril, Sábado

Tempo Temperatura Precipitação Vento Pressão Humidade
00:00 +25°C° 0.4 mm 2 m/s 758 mmHg 96%
01:00 +25°C° 0.3 mm 2 m/s 757 mmHg 96%
02:00 +25°C° 0.3 mm 2 m/s 757 mmHg 96%
03:00 +25°C° 0.3 mm 1 m/s 756 mmHg 96%
04:00 +25°C° 0.4 mm 1 m/s 757 mmHg 96%
05:00 +25°C° 0.4 mm 1 m/s 757 mmHg 96%
06:00 +25°C° 0.4 mm 1 m/s 757 mmHg 96%
07:00 +25°C° 0.4 mm 1 m/s 758 mmHg 96%
08:00 +25°C° 0.4 mm 1 m/s 759 mmHg 96%
09:00 +25°C° 0.4 mm 1 m/s 759 mmHg 96%
10:00 +25°C° 0.5 mm 1 m/s 759 mmHg 96%
11:00 +26°C° 0.5 mm 1 m/s 759 mmHg 96%
12:00 +26°C° 0.5 mm 1 m/s 759 mmHg 96%
13:00 +26°C° 0.4 mm 1 m/s 758 mmHg 96%
14:00 +26°C° 0.4 mm 1 m/s 758 mmHg 96%
15:00 +24°C° 0.4 mm 0 m/s 757 mmHg 95%
16:00 +24°C° 0.4 mm 0 m/s 757 mmHg 96%
17:00 +25°C° 0.4 mm 1 m/s 757 mmHg 97%
18:00 +25°C° 0.4 mm 1 m/s 757 mmHg 98%
19:00 +25°C° 1.2 mm 1 m/s 758 mmHg 98%
20:00 +25°C° 1.2 mm 1 m/s 758 mmHg 98%
21:00 +25°C° 1.2 mm 1 m/s 758 mmHg 98%
22:00 +25°C° 0.1 mm 1 m/s 759 mmHg 98%
23:00 +25°C° 0.1 mm 2 m/s 759 mmHg 98%
Mostrar mais